Location: Fernhill
(41.0167°S, 175.6333°E)
Time: 01:29:23
(UTC+00:00)

CZ-2C R/B - Pass Details

Date: 08 November 2025
Orbit: 631 x 691 km, 98.1° (Epoch: 13 December)

Event Time Altitude Azimuth Distance (km) Brightness Sun altitude
Exits shadow 10:22:16 59° 190° (S) 766 4.1 -27.9°
Drops below altitude 10° 10:25:56 10° 192° (SSW) 2,073 7.2 -28.2°
Sets 10:28:09 0° 192° (SSW) 2,984 8.2 -28.4°
